STARLINK-32833, 62873

Orbit data source: Space-Track

STARLINK-32833, 62873 is a payload satellite owned by SpaceX/Seattle (US) in LEO that was launched on Sat, 01 Feb 2025 UTC via an FALCON 9 launch vehicle from the Air Force Western Test Range (AFWTR). Payload-class satellites include a variety of spacecraft equipped with specific instruments for various scientific and technological missions. These include communications satellites like Starlink; space stations such as the ISS; scientific satellites like the Hubble; Earth observation satellites from companies like Planet Labs, Umbra, and HawkEye 360; GPS; miniature CubeSats for education and research; and military/defense satellites.

Loading next visibility...
Identifier
62873, 2025-022V
Orbit
LEO
Country
Flag of USUS
Related business
Manufacturer
SpaceX/Seattle
Mission
Operational Commercial Communications
Bus & Motor
STARLINK V2M, Unknown motor
Mass
730 kg wet, ~700 kg dry
Launch date (UTC)
2025-02-01 (9 months ago)
Launch vehicle
FALCON 9
Launch site
Air Force Western Test Range (AFWTR)
Object type
Payload
Rocket body
Debris
Shape & HBR
Box + 2 Pan, 17.7 m
Radar Cross Section
33.884 m², Large (>1 m²)

Expand to show TLE details & history
Last TLE update: 10 hours ago

TLE from 10 hours ago
0 STARLINK-32833
1 62873U 25022V   25293.60495887  .00045843  00000-0  15506-2 0  9998
2 62873  53.1621  60.2144 0000806  81.8525 278.2567 15.30195033 40456
Epoch: 2025-10-20T14:31Z
TLE epoch observation values (Epoch: 2025-10-20T14:31:08.446Z)
Latitude
-0.00003°
Longitude
173.12431°
Altitude
476.051 km
Speed
7.629 km/s
True Right ascension
04h 00m 51s
True Declination
0° 00' 00"
Sunlit
Object was in full shadow at epoch
Visualization orbit readout
Latitude
Unknown
Longitude
Unknown
Altitude
Unknown
Speed
Unknown
Apparent Right ascension
Unknown
Apparent Declination
Unknown
Sunlit
N/A
Visualization observer readout
Local Sidereal Time
19:26:54
Azimuth
Unknown
Elevation
Unknown
Doppler factor
Unknown
Orbital elements
Apogee altitude
476.038 km
Perigee altitude
474.934 km
Semi-major axis
6,853.623 km
Eccentricity
0.00008
Inclination
53.1621°
RAAN
60.2144°
Arg. of periapsis
81.8525°
True anomaly
278.24756°
Mean anomaly
278.2567°
Eccentric anomaly
278.25213°
Mean motion
3.82528 °/min
Orbital period
94.11 mins
BSTAR
0.0015506
Loading maneuver chart data...
Computing Atmospheric mass density...
Loading historical data...
Loading historical data...
Loading historical data...
Loading historical data...
Loading historical data...
Loading historical data...
Loading historical data...

Documentation

Showing up to 5 results
|